Wind_Speed
13 15 14 15 14 13 14 16 17 17 16 16 16 16 15 15 15 13 7 4 7 4 9 7 9 8 5 3 5 4 6 3 5 8 11 6 9 4 5 2 4 9 11 9 9 11 14 5 6 5 5 5 6 8
14 13 13 13 13 14 15 15 16 16 15 15 14 15 15 14 13 11 4 4 6 6 7 11 16 16 11 7 6 1 4 3 4 5 2 4 5 3 6 5 4 5 4 5 2 4 5 2 4 3 1 7 8 9
15 12 13 14 14 14 14 14 14 15 15 16 15 14 14 13 12 9 8 7 4 4 7 7 3 1 7 17 15 4 3 1 3 3 4 5 5 5 7 9 3 4 1 3 3 5 4 5 6 3 5 7 7 10
12 11 13 13 13 14 14 15 16 16 16 17 17 16 15 14 12 9 7 4 4 5 4 2 1 2 2 5 12 17 6 1 2 1 1 4 5 2 5 4 7 2 6 4 2 6 6 6 7 9 11 10 11 11
11 13 14 14 14 15 16 16 17 18 18 19 19 18 17 16 13 8 7 7 8 3 4 6 16 1 4 10 9 12 13 3 4 4 2 2 6 4 4 4 8 7 7 7 2 7 2 8 9 11 13 12 12 15
11 11 13 13 14 15 16 17 18 19 20 20 21 21 20 16 7 3 4 4 6 5 3 4 5 2 1 3 12 10 10 7 5 3 3 3 12 9 5 5 5 3 1 5 4 7 5 10 10 9 12 12 12 14
9 11 12 14 15 16 17 18 20 21 22 22 24 21 12 6 4 4 4 2 7 3 3 4 2 4 2 3 6 7 10 6 7 8 8 7 6 7 9 9 6 1 2 3 4 9 7 9 6 10 12 12 14 17
9 10 11 13 15 17 18 19 22 23 23 26 19 9 4 6 5 2 3 4 7 4 4 3 3 3 2 2 4 4 7 8 6 7 7 9 9 8 9 9 10 6 5 2 4 2 3 9 11 11 14 14 15 14
10 11 12 13 15 17 19 21 23 23 25 18 6 4 2 2 2 2 5 3 6 3 3 2 3 2 2 3 2 4 5 7 5 9 12 8 11 11 7 11 10 8 8 7 8 5 6 10 11 12 12 13 14 14
10 11 12 13 14 16 19 21 21 25 17 6 1 4 3 2 4 3 3 3 3 3 3 4 3 4 5 3 2 4 4 7 6 11 7 14 14 16 14 11 7 6 8 5 9 9 9 10 11 13 13 11 12 15
11 11 11 13 14 16 18 16 20 22 12 5 4 2 6 7 3 3 2 3 3 3 4 3 4 5 3 5 5 3 3 4 5 7 11 9 14 17 21 17 14 12 10 10 10 6 9 10 12 13 12 13 18 22
12 11 11 12 13 15 15 13 17 15 12 10 10 7 5 3 3 3 3 3 4 1 1 2 3 3 4 3 4 3 4 3 5 5 5 11 11 12 13 18 19 16 13 11 10 8 8 10 14 14 14 17 21 23
14 12 12 12 12 13 13 11 15 17 13 2 3 2 2 2 2 4 5 3 2 1 3 3 4 3 3 3 5 3 5 5 2 4 5 7 5 3 7 10 9 11 13 12 10 10 11 13 16 20 19 23 26 25
15 13 13 13 12 12 11 10 15 15 4 2 2 2 3 3 4 1 2 1 3 4 7 7 6 3 4 3 2 4 4 2 4 5 4 3 3 2 3 3 11 13 13 14 13 13 16 19 18 23 26 28 29 25
15 13 13 13 12 12 8 11 14 7 3 2 3 3 4 2 2 1 3 5 4 5 7 6 5 2 3 4 5 3 4 5 3 1 3 5 1 3 6 7 10 12 12 13 16 15 18 21 22 23 27 29 28 25
12 10 11 7 5 5 9 11 6 2 2 3 3 4 3 5 2 3 5 5 5 6 8 3 1 3 3 3 2 5 3 0 3 4 4 2 2 4 7 9 11 12 14 15 20 22 24 24 25 27 28 24 24 23
13 5 4 3 5 7 9 3 2 2 3 3 3 4 5 5 5 5 6 6 7 4 2 2 2 5 4 3 3 3 4 6 4 6 6 1 3 5 7 11 11 16 18 21 23 26 26 28 24 19 17 22 22 19
9 8 7 5 2 4 1 2 2 2 3 4 4 1 2 6 6 6 4 4 3 2 2 2 4 4 2 3 3 5 7 8 6 4 5 3 4 7 13 10 17 21 24 27 28 27 25 22 20 17 20 20 18 15
11 10 6 3 1 2 2 1 2 3 3 4 4 4 5 6 7 6 6 9 9 8 4 3 4 2 3 2 5 6 6 4 6 6 2 5 10 9 16 20 23 25 27 25 26 23 20 15 16 18 19 19 16 14
10 8 7 4 2 1 1 1 2 3 4 3 5 4 5 5 5 4 6 6 3 2 3 2 2 3 3 5 5 7 5 5 4 5 6 6 11 14 16 23 22 27 26 23 19 20 18 17 17 12 9 13 17 15
11 7 6 2 1 2 2 2 2 2 4 3 4 6 4 3 4 2 2 2 2 1 2 2 3 4 7 7 7 3 4 6 8 6 7 8 12 20 20 27 29 23 19 16 12 11 15 13 11 15 15 13 14 12
7 9 3 2 1 1 3 2 3 5 3 4 4 2 3 3 3 3 4 2 2 2 1 2 4 3 5 8 8 13 14 19 20 17 19 20 10 10 13 20 22 15 16 15 16 15 16 17 18 18 18 11 10 12
9 3 3 2 1 1 3 1 2 2 3 2 3 2 2 2 3 4 1 3 3 5 6 5 6 9 9 16 22 21 21 22 13 16 18 19 20 21 21 19 21 21 18 15 21 17 21 19 18 18 13 9 12 14
4 1 0 1 1 2 1 2 2 2 2 2 2 2 3 4 4 3 3 3 3 6 6 7 8 6 11 15 10 13 18 23 23 22 19 22 17 19 23 23 23 23 24 20 21 20 18 14 12 10 9 10 10 10
1 1 1 1 2 1 2 2 1 2 2 2 1 2 3 3 3 4 5 5 7 7 6 13 13 8 9 9 13 19 23 22 19 11 16 20 19 19 18 18 16 13 13 12 11 11 11 9 9 10 10 10 9 7
1 2 1 1 1 1 2 2 1 2 2 2 3 2 2 3 5 5 4 8 10 10 10 10 7 7 9 13 7 10 12 13 17 18 16 15 15 16 14 12 12 11 8 10 12 13 13 12 13 12 11 8 5 2
1 1 1 2 2 2 3 2 2 2 2 3 1 2 3 5 5 4 3 6 3 8 15 16 14 13 10 14 15 15 17 18 18 18 17 17 16 14 12 11 11 10 8 9 9 10 11 11 10 8 5 3 2 2
1 1 2 1 2 2 3 3 1 4 3 1 3 5 3 3 3 4 5 8 14 13 12 13 14 15 16 15 15 14 14 14 15 16 18 18 16 16 15 14 13 12 11 9 8 8 7 6 5 3 3 2 2 3
2 1 2 3 4 2 6 5 5 4 4 6 9 8 4 3 5 5 7 7 7 12 13 12 11 11 13 15 15 14 12 12 12 10 11 8 11 12 11 11 11 10 9 8 7 6 4 3 2 1 1 2 1 1
2 3 7 11 5 6 8 8 13 14 15 15 12 9 6 5 8 5 9 12 14 13 12 11 12 12 12 13 15 16 16 14 13 11 8 8 10 10 9 9 9 8 8 8 7 5 3 2 1 2 2 3 5 6
6 10 18 16 15 13 13 16 16 15 13 12 12 10 9 7 12 14 12 10 9 11 15 16 16 16 15 15 13 14 14 14 14 14 13 13 12 11 10 8 8 7 6 5 4 2 2 2 3 4 6 7 8 9
12 15 14 19 13 12 10 11 11 9 9 10 10 10 12 11 12 9 13 15 15 13 14 15 14 13 14 14 14 13 12 12 11 10 9 9 8 7 6 5 3 2 2 3 4 5 6 8 10 11 12 14 15 16
12 12 12 11 11 11 8 6 7 8 9 9 10 8 8 8 8 4 10 11 11 11 10 9 9 9 8 8 8 8 9 8 5 4 3 2 1 1 2 3 3 5 7 8 9 9 10 12 14 16 16 17 18 18
Wind_Direction
331 328 322 319 324 335 337 338 337 338 339 337 338 339 343 346 349 356 307 328 323 296 291 277 292 299 308 268 289 33 256 137 254 250 243 176 255 201 238 353 236 214 218 220 237 258 244 115 153 249 51 91 119 120
331 331 331 325 321 320 324 327 328 330 333 335 335 335 338 339 342 347 307 317 313 265 301 300 280 274 274 301 323 307 24 76 30 282 284 315 228 188 254 199 169 241 329 309 310 36 66 66 45 92 112 125 113 118
328 329 328 328 327 330 327 327 328 328 329 330 331 331 330 330 332 329 301 301 281 257 268 241 239 118 247 240 246 285 138 77 90 67 338 322 286 324 216 219 273 151 217 253 192 148 118 121 138 143 137 112 110 117
319 326 327 327 327 328 327 326 327 327 326 324 325 325 324 322 322 311 269 256 279 302 286 102 114 226 276 247 220 227 285 104 59 343 297 294 292 2 265 328 253 5 170 223 184 141 146 147 113 119 105 107 108 104
315 318 322 323 327 327 327 328 328 326 325 323 323 322 321 317 312 301 258 244 228 286 318 308 302 15 276 219 222 217 216 239 215 195 164 254 311 307 213 292 242 184 220 227 268 128 211 155 139 135 131 129 123 122
311 313 320 328 329 330 329 330 328 327 325 321 318 316 312 304 288 270 189 203 196 209 276 304 8 239 358 198 205 198 198 215 228 207 175 171 270 281 253 239 68 7 27 342 80 90 89 121 141 145 135 136 136 131
304 316 325 329 329 330 329 329 328 326 323 322 319 314 305 271 217 280 20 101 169 210 261 296 270 121 291 226 188 202 207 208 226 217 236 189 236 235 270 262 103 93 34 75 109 124 108 160 161 146 136 131 135 127
297 310 321 331 332 332 331 330 328 327 328 327 325 321 330 192 194 221 107 201 203 264 268 291 280 220 1 232 201 195 196 206 210 233 231 226 208 227 246 244 270 250 268 230 181 196 334 166 146 142 147 148 138 137
293 307 318 323 331 335 335 333 329 332 334 333 344 137 143 225 151 106 177 319 214 279 298 255 297 23 334 248 212 215 222 211 224 221 232 233 235 223 226 244 249 237 237 246 181 184 168 167 159 148 159 161 144 144
285 301 315 321 327 333 337 337 338 339 342 8 18 213 170 127 285 266 132 186 198 202 242 267 271 286 329 297 231 195 220 234 209 221 224 221 239 242 225 237 236 215 223 227 190 190 189 180 169 173 167 164 155 149
274 289 306 318 325 332 338 344 349 359 4 3 347 339 339 306 214 217 225 215 171 224 211 258 318 290 310 284 303 237 229 232 239 223 211 222 230 229 230 237 225 231 221 218 220 219 204 188 178 172 169 161 151 149
265 278 294 307 319 326 332 337 350 356 345 309 291 298 294 243 217 237 218 180 217 309 74 240 233 236 266 241 266 234 243 242 249 134 223 237 240 223 225 223 227 224 213 200 184 194 178 173 171 167 157 148 141 137
264 273 285 300 312 319 325 330 336 336 337 240 253 253 242 192 247 234 191 191 123 211 233 229 291 221 217 237 252 238 241 225 108 209 226 232 90 157 221 232 182 186 183 159 162 164 160 152 150 143 133 132 130 126
257 269 282 291 301 311 309 317 327 336 292 270 279 259 234 187 243 257 63 70 267 265 298 316 300 252 196 220 292 268 262 254 239 226 224 54 18 152 136 191 163 166 153 150 149 145 144 143 135 130 128 129 125 128
247 259 275 290 299 299 296 311 322 318 280 269 237 247 226 282 301 17 322 280 259 291 312 308 270 295 269 220 199 252 239 228 240 16 59 348 38 137 169 165 153 143 143 138 137 134 131 125 122 119 121 123 127 135
230 262 269 270 279 288 303 318 310 276 248 254 249 256 257 260 240 239 245 289 325 340 317 252 8 314 266 249 166 244 255 314 44 16 343 97 124 151 148 141 134 137 132 132 132 128 124 125 126 129 138 148 160 165
195 222 239 218 290 302 312 292 269 247 269 249 241 250 272 288 287 301 300 296 1 328 271 296 216 234 238 201 249 252 7 343 328 321 339 84 144 149 148 139 128 126 124 124 126 124 122 126 127 135 147 162 155 152
198 199 226 238 309 311 244 255 264 263 259 256 276 343 268 286 286 284 295 318 305 280 264 262 294 253 292 324 0 359 333 327 302 291 297 277 176 134 129 125 123 126 127 125 121 123 128 133 144 156 148 135 126 126
176 173 184 204 48 325 307 215 280 276 272 305 288 272 287 288 286 296 277 276 257 241 273 251 259 303 348 349 323 314 305 289 304 300 200 131 116 116 120 115 123 120 121 124 127 134 141 134 124 127 147 157 151 149
155 170 183 173 46 285 261 229 247 275 284 345 285 304 309 295 307 282 275 269 248 239 239 244 287 313 283 301 302 297 284 282 265 94 78 95 104 109 119 122 117 117 115 117 126 130 123 127 144 154 136 132 133 132
131 148 157 131 53 302 288 297 260 276 315 287 322 331 298 285 266 278 303 320 262 306 283 315 297 319 313 314 317 324 24 60 71 68 93 86 97 96 109 119 116 121 121 123 119 109 129 124 118 126 121 115 130 134
127 143 137 151 255 228 266 245 295 318 273 306 319 309 276 290 325 348 316 306 304 301 295 339 334 15 35 26 36 56 71 70 80 79 78 85 89 92 94 113 119 108 102 105 107 102 93 109 118 106 104 118 128 124
125 138 126 160 269 213 284 294 274 240 275 308 311 272 262 306 351 304 356 345 343 3 25 29 21 49 60 60 57 52 64 72 70 71 75 75 79 90 92 97 110 108 98 86 103 104 100 94 97 102 100 116 119 121
84 59 270 181 200 287 298 278 269 298 311 289 284 304 15 1 344 22 9 3 341 11 25 27 32 60 61 49 45 43 56 78 73 59 67 81 75 73 86 90 96 100 107 118 115 109 109 98 98 115 130 132 127 124
275 53 243 270 292 283 265 274 272 268 276 273 7 24 21 12 30 27 9 14 31 33 43 57 54 53 62 56 50 49 56 68 76 74 71 81 88 86 89 97 101 108 124 124 118 113 115 133 136 133 129 126 120 116
330 159 181 177 247 242 303 283 284 305 288 47 38 30 31 47 40 33 33 29 35 38 39 35 35 53 53 51 58 47 33 71 83 77 79 92 102 108 116 117 110 93 105 125 135 137 139 140 138 133 123 113 122 168
33 54 5 1 330 309 274 254 253 276 35 61 47 55 41 54 45 34 16 355 357 11 29 30 24 42 51 60 69 68 71 77 80 81 79 75 71 69 80 90 90 93 102 112 123 132 135 139 144 147 148 152 126 137
324 304 286 326 250 218 256 240 86 39 56 43 52 47 56 57 87 141 99 97 75 62 62 56 57 64 68 70 73 77 83 88 91 89 83 76 73 75 78 82 87 93 96 99 113 127 134 143 150 161 180 219 222 240
290 221 241 259 202 197 29 32 32 46 61 86 104 95 93 100 114 86 70 92 110 93 83 72 71 77 78 73 67 65 67 74 83 87 89 91 89 82 85 88 88 87 92 102 100 103 102 105 111 117 252 267 271 272
53 225 64 71 57 48 62 88 89 88 87 91 102 113 107 88 52 65 89 87 79 73 75 69 70 71 75 80 74 68 63 61 60 75 86 89 96 99 97 93 90 88 90 95 100 106 134 147 167 197 256 265 266 272
107 98 94 99 94 92 95 100 102 108 109 101 91 91 92 106 86 67 70 75 83 76 73 70 69 69 69 64 69 79 75 66 69 74 80 87 88 90 92 92 89 83 80 76 74 73 92 266 283 282 275 278 284 278
101 95 94 94 97 112 117 111 110 107 100 88 91 100 100 92 86 70 20 82 89 86 69 74 76 73 73 76 75 74 71 73 74 77 71 76 81 84 86 81 71 44 348 320 305 294 283 279 288 291 293 291 290 290
97 102 104 105 106 108 108 96 88 83 94 89 85 86 79 76 71 83 65 53 52 59 62 65 68 69 65 59 61 68 69 71 80 84 88 109 149 227 312 314 299 292 288 292 298 303 297 287 286 288 292 295 296 296
Height
850 848 845 843 841 839 836 833 831 828 826 823 820 817 814 812 808 806 803 802 800 783 768 766 763 760 753 748 744 744 741 739 734 734 720 726 721 722 720 717 718 722 729 724 725 734 743 723 728 736 735 729 726 727
848 845 843 841 839 837 834 832 830 827 824 822 819 816 813 810 808 806 803 802 801 798 772 771 767 766 765 762 758 749 749 749 749 741 729 725 723 724 717 734 726 740 721 720 722 729 731 731 730 732 731 733 735 737
845 843 841 839 836 834 832 830 827 824 822 819 816 814 812 809 807 805 803 801 800 791 769 763 755 760 761 762 764 759 749 755 756 758 754 740 736 721 724 727 725 725 726 725 734 731 730 732 735 732 731 735 738 742
843 841 839 836 834 832 829 827 824 822 819 815 813 810 808 806 804 803 802 800 801 796 777 752 759 758 759 759 760 761 759 761 761 759 759 747 743 734 722 724 724 722 725 724 728 729 732 734 733 735 740 744 747 750
840 838 836 834 831 829 826 824 821 818 815 811 808 806 804 801 800 798 798 797 798 799 776 759 758 756 756 757 758 758 759 761 756 761 761 760 744 742 729 729 722 717 720 726 720 720 727 731 739 740 743 748 752 758
837 836 834 831 829 826 824 821 818 814 810 807 804 800 798 796 795 796 793 795 794 795 791 763 753 753 753 753 755 756 757 760 756 756 757 766 764 754 739 730 721 719 722 720 720 724 730 733 740 742 745 750 754 760
835 833 831 829 827 824 821 817 814 810 806 802 798 794 791 791 793 791 789 794 793 794 789 768 746 747 752 750 748 750 754 752 752 751 750 752 765 749 739 734 725 726 726 728 729 732 742 741 744 745 750 755 758 762
832 831 829 827 824 821 818 814 810 805 801 796 792 789 787 788 792 790 791 792 793 793 786 773 749 745 749 745 741 742 743 747 746 742 740 739 738 738 741 725 723 723 729 730 732 733 732 737 742 749 755 758 760 765
829 828 826 825 822 819 816 812 807 801 796 791 789 788 790 789 788 790 790 791 791 795 782 775 763 747 747 740 743 743 737 738 732 734 734 734 731 730 723 725 725 727 730 726 729 734 736 739 748 753 757 758 762 767
826 825 824 822 820 817 814 810 805 799 793 789 790 788 787 788 788 789 790 790 790 789 785 769 759 753 751 741 737 745 737 728 727 724 721 725 720 714 714 718 722 723 726 727 731 736 736 737 749 753 755 758 762 767
822 821 821 820 818 815 812 809 804 798 794 792 789 784 789 787 787 784 781 782 779 777 771 765 764 766 760 753 744 741 735 721 725 712 716 714 713 710 710 713 716 719 722 724 727 728 733 736 745 751 756 759 764 770
818 818 818 817 815 813 810 808 805 802 800 799 798 795 791 783 778 779 771 769 769 767 772 771 771 769 762 760 745 738 733 722 719 707 715 710 698 694 698 702 706 711 717 721 726 730 733 737 744 750 755 760 767 772
815 815 815 814 813 811 809 807 805 802 799 797 795 792 783 780 784 770 762 758 767 773 767 765 761 763 759 759 744 741 728 717 711 716 706 695 692 695 699 698 699 709 714 720 726 730 736 741 748 753 758 765 770 776
812 812 811 811 810 808 807 805 803 801 798 792 791 789 779 774 763 758 763 769 767 762 758 755 755 751 749 751 742 741 718 716 714 707 698 697 699 701 704 702 705 710 717 723 728 734 741 748 754 758 762 768 772 780
808 808 808 807 807 806 805 803 801 800 796 790 784 785 769 763 764 764 769 764 759 757 755 754 750 752 748 742 744 734 724 709 700 701 703 703 705 707 710 711 712 719 723 727 733 739 746 752 758 763 768 773 780 785
804 806 804 804 804 804 803 801 800 798 795 789 784 771 767 764 764 764 762 756 754 754 757 754 755 762 747 728 736 727 709 703 706 708 709 709 710 712 712 714 718 722 727 732 739 745 751 756 761 768 775 780 784 788
800 801 801 802 802 801 801 800 798 796 789 785 772 771 770 767 763 760 758 757 759 765 756 751 759 753 735 730 735 722 718 718 716 712 711 710 712 713 714 717 721 726 732 739 745 749 755 762 767 771 776 780 784 788
796 797 799 800 800 800 799 798 795 793 787 776 771 766 770 768 765 761 761 766 767 760 754 750 746 732 726 726 724 723 721 722 717 714 713 715 714 715 718 722 727 732 737 744 750 757 763 768 774 778 781 783 787 792
793 796 798 799 800 800 797 796 796 788 780 775 773 770 768 765 762 764 765 763 762 760 755 748 741 732 732 731 732 730 728 723 719 717 716 717 719 721 724 729 733 738 745 751 757 763 770 773 776 779 783 786 789 794
793 796 798 799 800 799 797 795 796 789 779 772 772 769 770 768 767 764 761 757 754 752 747 743 739 739 738 735 733 730 724 720 717 713 717 721 724 725 729 732 739 746 752 759 765 769 774 777 780 783 786 789 792 797
795 797 799 800 800 799 797 793 789 786 781 777 773 774 775 771 765 759 756 754 750 748 745 744 742 739 737 734 730 727 723 720 721 723 725 728 730 732 736 743 747 755 761 766 770 774 776 782 786 787 790 793 797 799
795 798 800 801 800 799 797 793 791 788 785 776 779 779 774 766 761 760 759 754 750 748 746 744 743 740 739 736 734 732 731 728 731 734 734 736 738 742 747 753 758 765 770 773 776 780 784 787 790 791 791 797 799 801
798 799 799 799 798 797 797 793 791 787 784 782 782 777 769 764 765 762 758 758 755 754 751 749 748 747 745 743 740 740 739 739 741 744 745 747 751 754 758 763 766 770 776 781 782 785 787 790 793 795 798 801 803 805
799 799 797 795 795 796 791 791 788 787 787 784 782 772 771 769 769 768 765 764 763 759 755 755 753 752 750 750 750 751 752 751 753 755 758 758 761 765 768 771 775 778 782 786 788 790 794 796 799 802 805 805 806 808
802 803 800 802 796 797 797 791 789 788 785 782 776 778 774 774 774 777 773 772 768 765 763 763 763 762 763 764 765 765 764 764 767 769 772 771 773 776 779 783 786 789 791 792 794 795 798 802 804 805 806 808 809 811
801 799 801 794 796 798 792 788 787 786 783 777 777 776 775 779 785 787 786 785 780 777 777 775 775 774 775 776 776 776 776 776 775 774 776 777 778 780 783 786 789 793 794 795 797 799 801 803 805 807 809 811 812 812
799 797 797 798 799 799 795 792 791 788 774 777 776 774 779 787 796 796 797 796 793 790 787 785 783 781 781 782 783 784 783 783 784 785 786 787 787 787 788 790 794 797 798 799 800 802 803 805 807 809 810 811 811 812
802 803 798 798 798 797 792 783 774 777 775 771 773 785 790 800 804 802 800 799 797 794 793 792 791 789 788 788 788 789 790 790 791 791 792 794 796 797 798 799 801 801 801 803 804 805 806 808 809 810 811 811 811 812
802 800 801 792 789 782 778 777 776 775 772 773 781 788 796 796 797 796 797 797 795 794 795 795 795 795 795 795 795 794 794 793 794 795 795 796 800 803 804 804 805 806 807 808 808 809 810 810 811 811 812 811 812 812
793 794 781 782 786 788 781 781 781 785 787 789 791 794 796 799 800 799 797 797 797 798 799 798 797 796 796 797 799 799 800 800 799 799 799 802 804 806 807 808 808 809 809 810 811 812 813 813 813 812 812 811 810 809
787 784 785 789 791 793 794 796 796 794 793 793 795 795 797 799 802 803 803 802 801 800 800 801 801 801 801 801 801 802 805 807 807 807 807 807 808 809 810 811 811 812 812 812 812 812 812 811 811 810 809 809 808 808
790 790 789 791 793 795 796 796 797 797 796 796 796 796 798 801 803 807 808 805 806 806 807 807 808 809 809 809 810 810 810 811 811 812 812 812 812 813 813 813 813 814 813 813 812 811 810 811 809 807 806 805 803 801
793 793 794 796 799 800 800 799 801 803 802 803 804 804 803 806 811 812 813 813 812 812 812 813 813 813 814 813 814 813 814 814 814 814 815 814 814 814 814 813 813 813 813 811 809 808 808 807 806 803 801 799 797 795